Location: Treviso
(45.6669°N, 12.2430°E)
Time: 10:25:54
(UTC+01:00)

ISS - Pass Details

Date: 02 December 2021
Orbit: 417 x 422 km, 51.6° (Epoch: 06 December)

Event Time Altitude Azimuth Distance (km) Brightness Sun altitude
Rises 19:33:09 0° 296° (WNW) 2,379 1.0 -31.5°
Reaches altitude 10° 19:35:18 10° 291° (WNW) 1,511 -0.2 -31.9°
Enters shadow 19:35:20 10° 291° (WNW) 1,495 -0.2 -31.9°
